Nucla Hopkins Field Airport, CO

3:20 AM MDT on April 25, 2018 (GMT -0600)
Nucla Hopkins Field Airport

Weather History for KAIB - August, 2014

Change the Weather History Date:

Sunday, August 10, 2014

  Actual Average (KTEX) Record (KTEX)
Temperature  
Mean Temperature 71 °F -  
Max Temperature 89 °F 69 °F 75 °F (2002)
Min Temperature 53 °F 48 °F 44 °F (2002)
Cooling Degree Days 6    
Growing Degree Days 21 (Base 50)    
Moisture  
Dew Point 35 °F    
Average Humidity 30    
Maximum Humidity 58    
Minimum Humidity 11    
Precipitation  
Precipitation 0.00 in - - ()
Sea Level Pressure  
Sea Level Pressure 30.30 in    
Wind  
Wind Speed 6 mph (ENE)    
Max Wind Speed 12 mph    
Max Gust Speed 18 mph    
Visibility 10 miles    
Events      
Averages and records for this station are not official NWS values.
T = Trace of Precipitation, MM = Missing Value Source: NWS Daily Summary

Daily Weather History Graph

Daily Weather History Graph

Search for Another Location

Airport or City:

Astronomy

Aug. 10, 2014 Rise Set
Actual Time 6:24 AM MDT 8:13 PM MDT
Civil Twilight 5:56 AM MDT 8:42 PM MDT
Nautical Twilight 5:21 AM MDT 9:16 PM MDT
Astronomical Twilight 4:44 AM MDT 9:53 PM MDT
Moon 8:04 PM MDT (8/10) 6:19 AM MDT (8/10)
Length of Visible Light 14h 46m
Length of Day
13h 49m
Full, 100% of the Moon is Illuminated
Aug 10
Full
Aug 10
Full
Aug 17
Last Quarter
Aug 25
New
Sep 2
First Quarter

Hourly Weather History & Observations

Time (MDT) Temp. Dew Point Humidity Pressure Visibility Wind Dir Wind Speed Gust Speed Precip Events Conditions
12:15 AM 64.4 °F 35.6 °F 34% 30.29 in 10.0 mi East 9.2 mph - N/A   Clear
12:35 AM 64.4 °F 37.4 °F 37% 30.29 in 10.0 mi East 9.2 mph - N/A   Clear
12:55 AM 62.6 °F 37.4 °F 39% 30.29 in 10.0 mi East 8.1 mph - N/A   Clear
1:15 AM 62.6 °F 37.4 °F 39% 30.29 in 10.0 mi East 6.9 mph - N/A   Clear
1:35 AM 64.4 °F 37.4 °F 37% 30.29 in 10.0 mi ESE 9.2 mph - N/A   Clear
1:55 AM 62.6 °F 39.2 °F 42% 30.29 in 10.0 mi ESE 3.5 mph - N/A   Clear
2:15 AM 62.6 °F 37.4 °F 39% 30.29 in 10.0 mi Calm Calm - N/A   Clear
2:35 AM 60.8 °F 39.2 °F 45% 30.29 in 10.0 mi SSE 4.6 mph - N/A   Clear
2:55 AM 59.0 °F 39.2 °F 48% 30.29 in 10.0 mi SE 6.9 mph - N/A   Clear
3:15 AM 59.0 °F 39.2 °F 48% 30.29 in 10.0 mi ESE 6.9 mph - N/A   Clear
3:35 AM 59.0 °F 39.2 °F 48% 30.29 in 10.0 mi ESE 10.4 mph - N/A   Clear
3:55 AM 59.0 °F 37.4 °F 45% 30.29 in 10.0 mi East 10.4 mph - N/A   Clear
4:15 AM 59.0 °F 39.2 °F 48% 30.29 in 10.0 mi ESE 9.2 mph - N/A   Clear
4:35 AM 57.2 °F 39.2 °F 51% 30.29 in 10.0 mi ESE 8.1 mph - N/A   Clear
4:55 AM 59.0 °F 39.2 °F 48% 30.29 in 10.0 mi East 9.2 mph - N/A   Clear
5:15 AM 57.2 °F 39.2 °F 51% 30.29 in 10.0 mi East 9.2 mph - N/A   Clear
5:35 AM 55.4 °F 37.4 °F 51% 30.30 in 10.0 mi East 6.9 mph - N/A   Clear
5:55 AM 55.4 °F 37.4 °F 51% 30.31 in 10.0 mi East 5.8 mph - N/A   Clear
6:15 AM 55.4 °F 39.2 °F 54% 30.31 in 10.0 mi SE 4.6 mph - N/A   Clear
6:35 AM 53.6 °F 39.2 °F 58% 30.31 in 10.0 mi ESE 5.8 mph - N/A   Clear
6:55 AM 55.4 °F 39.2 °F 54% 30.32 in 10.0 mi ESE 8.1 mph - N/A   Clear
7:15 AM 57.2 °F 37.4 °F 48% 30.32 in 10.0 mi ESE 9.2 mph - N/A   Clear
7:35 AM 59.0 °F 39.2 °F 48% 30.32 in 10.0 mi ESE 8.1 mph - N/A   Clear
8:15 AM 60.8 °F 39.2 °F 45% 30.34 in 10.0 mi ESE 3.5 mph - N/A   Clear
8:35 AM 64.4 °F 39.2 °F 40% 30.34 in 10.0 mi ESE 5.8 mph - N/A   Clear
8:55 AM 64.4 °F 39.2 °F 40% 30.34 in 10.0 mi Calm Calm - N/A   Clear
9:15 AM 68.0 °F 41.0 °F 37% 30.34 in 10.0 mi Calm Calm - N/A   Clear
9:35 AM 68.0 °F 41.0 °F 37% 30.34 in 10.0 mi North 5.8 mph - N/A   Clear
9:55 AM 69.8 °F 37.4 °F 31% 30.34 in 10.0 mi NW 3.5 mph - N/A   Clear
10:15 AM 69.8 °F 37.4 °F 31% 30.34 in 10.0 mi NW 3.5 mph - N/A   Clear
10:35 AM 71.6 °F 37.4 °F 29% 30.35 in 10.0 mi Calm Calm - N/A   Clear
10:55 AM 73.4 °F 37.4 °F 27% 30.35 in 10.0 mi Calm Calm - N/A   Clear
11:15 AM 77.0 °F 37.4 °F 24% 30.35 in 10.0 mi Calm Calm - N/A   Clear
11:35 AM 78.8 °F 37.4 °F 23% 30.34 in 10.0 mi Calm Calm - N/A   Clear
11:55 AM 80.6 °F 35.6 °F 20% 30.34 in 10.0 mi WNW 4.6 mph - N/A   Clear
12:15 PM 82.4 °F 33.8 °F 17% 30.34 in 10.0 mi Calm Calm - N/A   Clear
12:35 PM 84.2 °F 32.0 °F 15% 30.33 in 10.0 mi WNW 6.9 mph - N/A   Clear
1:15 PM 84.2 °F 30.2 °F 14% 30.32 in 10.0 mi Calm Calm - N/A   Clear
1:35 PM 86.0 °F 30.2 °F 13% 30.31 in 10.0 mi Calm Calm - N/A   Clear
1:55 PM 86.0 °F 30.2 °F 13% 30.31 in 10.0 mi WNW 5.8 mph - N/A   Clear
2:15 PM 86.0 °F 32.0 °F 14% 30.29 in 10.0 mi Calm Calm - N/A   Clear
2:35 PM 86.0 °F 32.0 °F 14% 30.29 in 10.0 mi NW 6.9 mph - N/A   Clear
2:55 PM 87.8 °F 30.2 °F 13% 30.28 in 10.0 mi North 6.9 mph - N/A   Clear
3:15 PM 89.6 °F 30.2 °F 12% 30.28 in 10.0 mi NNW 10.4 mph - N/A   Clear
3:35 PM 87.8 °F 26.6 °F 11% 30.27 in 10.0 mi North 11.5 mph 18.4 mph N/A   Clear
3:55 PM 89.6 °F 28.4 °F 11% 30.27 in 10.0 mi NNW 11.5 mph - N/A   Clear
4:35 PM 87.8 °F 28.4 °F 12% 30.25 in 10.0 mi North 9.2 mph - N/A   Clear
5:15 PM 87.8 °F 30.2 °F 13% 30.25 in 10.0 mi North 9.2 mph - N/A   Clear
5:35 PM 87.8 °F 30.2 °F 13% 30.24 in 10.0 mi North 8.1 mph - N/A   Clear
5:55 PM 87.8 °F 30.2 °F 13% 30.24 in 10.0 mi North 3.5 mph - N/A   Clear
6:15 PM 87.8 °F 30.2 °F 13% 30.24 in 10.0 mi NNW 6.9 mph - N/A   Clear
6:35 PM 87.8 °F 28.4 °F 12% 30.23 in 10.0 mi WNW 8.1 mph - N/A   Clear
6:55 PM 87.8 °F 28.4 °F 12% 30.23 in 10.0 mi WNW 6.9 mph - N/A   Clear
7:15 PM 86.0 °F 28.4 °F 12% 30.23 in 10.0 mi West 6.9 mph - N/A   Clear
7:35 PM 86.0 °F 28.4 °F 12% 30.23 in 10.0 mi NW 4.6 mph - N/A   Clear
7:55 PM 80.6 °F 32.0 °F 17% 30.23 in 10.0 mi North 6.9 mph - N/A   Clear
8:35 PM 78.8 °F 32.0 °F 18% 30.26 in 10.0 mi NNE 4.6 mph - N/A   Scattered Clouds
8:55 PM 78.8 °F 33.8 °F 20% 30.27 in 10.0 mi NE 5.8 mph - N/A   Clear
9:15 PM 78.8 °F 33.8 °F 20% 30.28 in 10.0 mi ENE 3.5 mph - N/A   Clear
9:35 PM 77.0 °F 32.0 °F 19% 30.28 in 10.0 mi ENE 3.5 mph - N/A   Clear
9:55 PM 77.0 °F 32.0 °F 19% 30.29 in 10.0 mi Calm Calm - N/A   Clear
10:15 PM 73.4 °F 33.8 °F 23% 30.30 in 10.0 mi SE 5.8 mph - N/A   Clear
10:35 PM 73.4 °F 33.8 °F 23% 30.31 in 10.0 mi ESE 5.8 mph - N/A   Clear
10:55 PM 69.8 °F 35.6 °F 28% 30.31 in 10.0 mi East 6.9 mph - N/A   Clear
11:15 PM 69.8 °F 35.6 °F 28% 30.31 in 10.0 mi East 8.1 mph - N/A   Clear
11:35 PM 68.0 °F 35.6 °F 30% 30.32 in 10.0 mi East 9.2 mph - N/A   Clear
11:55 PM 68.0 °F 35.6 °F 30% 30.32 in 10.0 mi East 10.4 mph - N/A   Clear